Weather reports worldwide

Advertisment
Le Touquet, France (7003): temperature & dewpoint: 09.09.2019 10:00:00 - 15.09.2019 10:00:00 (CEST)Le Touquet, France (7003): temperature 5cm: 09.09.2019 10:00:00 - 15.09.2019 10:00:00 (CEST)Le Touquet, France (7003): wind speed & gusts: 09.09.2019 10:00:00 - 15.09.2019 10:00:00 (CEST)Le Touquet, France (7003): wind direction: 09.09.2019 10:00:00 - 15.09.2019 10:00:00 (CEST)Le Touquet, France (7003): reduced air pressure: 09.09.2019 10:00:00 - 15.09.2019 10:00:00 (CEST)Le Touquet, France (7003): visibility: 09.09.2019 10:00:00 - 15.09.2019 10:00:00 (CEST)Le Touquet, France (7003): sunshine duration: 09.09.2019 10:00:00 - 15.09.2019 10:00:00 (CEST)Le Touquet, France (7003): precipitation: 09.09.2019 10:00:00 - 15.09.2019 10:00:00 (CEST)
Date & Time tt [°C] td [°C] tt 5cm [°C] ff [km/h] ff [kn] fx [km/h] fx [kn] dd ppp [hPa] vv [km] sd [min] rr [mm]
15.09.2019 10:00:00 14,1 11,8 12,9 7 4 12 7 SSE 1025,9 12 60 0,0
15.09.2019 09:00:00 10,7 9,9 7,8 8 5 13 7 SE 1025,7 9 60 0,0
15.09.2019 08:00:00 9,0 8,5 4,0 7 4 13 7 SSE 1025,8 6 9 0,0
15.09.2019 07:00:00 9,3 8,7 4,4 4 2 11 6 S 1025,7 3,8 0 0,0
15.09.2019 06:00:00 9,5 8,9 6,7 6 4 11 6 SSE 1025,7 6 0 0,0
15.09.2019 05:00:00 10,2 9,6 7,0 8 5 14 7 SSE 1026,0 7 0 0,0
15.09.2019 04:00:00 10,8 10,0 6,6 5 3 11 6 SSE 1026,5 7 0 0,0
15.09.2019 03:00:00 11,3 10,4 8,1 8 5 16 8 SSE 1026,7 8 0 0,0
15.09.2019 02:00:00 11,7 10,4 7,3 7 4 13 7 SSE 1027,0 9 0 0,0
15.09.2019 01:00:00 13,6 11,3 8,4 7 4 11 6 SSE 1027,3 16 0 0,0
15.09.2019 00:00:00 14,0 11,9 8,3 6 3 15 8 SSE 1027,8 14 0 0,0
14.09.2019 23:00:00 15,5 12,1 9,0 6 4 13 7 SSE 1028,4 20 0 0,0
14.09.2019 22:00:00 15,4 12,7 9,6 4 2 10 5 WSW 1028,8 20 0 0,0
14.09.2019 21:00:00 17,1 13,0 10,1 2 1 7 4 NNW 1028,7 23 0 0,0
14.09.2019 20:00:00 19,7 13,2 15,0 5 3 16 9 E 1028,6 30 44 0,0
14.09.2019 19:00:00 21,0 15,1 18,7 5 3 25 13 WSW 1028,7 38 60 0,0
14.09.2019 18:00:00 20,1 14,9 20,4 19 10 39 21 NW 1029,1 19 60 0,0
14.09.2019 17:00:00 20,6 14,3 21,4 23 12 36 20 NW 1029,6 20 60 0,0
14.09.2019 16:00:00 21,0 12,9 21,8 16 9 35 19 NW 1030,3 20 60 0,0
14.09.2019 15:00:00 21,3 13,2 27,0 21 11 31 17 NW 1031,1 20 60 0,0
14.09.2019 14:00:00 22,1 12,9 29,4 7 4 27 15 E 1031,6 32 60 0,0
14.09.2019 13:00:00 21,4 13,1 27,8 13 7 27 15 SE 1032,1 19 60 0,0
14.09.2019 12:00:00 20,4 13,1 24,7 9 5 23 12 SE 1032,8 31 60 0,0
14.09.2019 11:00:00 18,5 12,7 21,7 11 6 23 13 E 1033,0 29 60 0,0
14.09.2019 10:00:00 16,5 12,6 15,6 8 5 18 10 ESE 1033,4 20 60 0,0
14.09.2019 09:00:00 14,4 11,7 10,2 6 3 16 9 E 1033,4 20 60 0,0
14.09.2019 08:00:00 11,7 10,8 6,3 10 6 16 9 ESE 1033,6 19 11 0,0
14.09.2019 07:00:00 10,8 9,9 5,8 9 5 17 9 SE 1033,6 26 0 0,0
14.09.2019 06:00:00 10,3 9,5 5,1 5 3 10 5 SSE 1033,7 19 0 0,0
14.09.2019 05:00:00 10,5 9,6 5,3 4 2 9 5 ESE 1034,3 18 0 0,0
14.09.2019 04:00:00 11,0 9,7 6,4 4 2 10 6 SE 1034,2 20 0 0,0
14.09.2019 03:00:00 12,2 10,4 9,5 8 4 26 14 SE 1034,4 20 0 0,0
14.09.2019 02:00:00 13,2 11,3 10,4 12 7 22 12 ENE 1034,8 29 0 0,0
14.09.2019 01:00:00 13,3 11,4 11,1 9 5 22 12 ESE 1035,2 32 0 0,0
14.09.2019 00:00:00 14,1 11,6 12,4 13 7 39 21 E 1035,1 35 0 0,0
13.09.2019 23:00:00 14,8 12,1 13,7 22 12 44 24 ENE 1034,7 38 0 0,0
13.09.2019 22:00:00 15,3 12,4 14,3 18 10 39 21 ENE 1034,7 34 0 0,0
13.09.2019 21:00:00 15,9 12,8 14,8 17 9 32 18 NE 1034,8 36 0 0,0
13.09.2019 20:00:00 17,3 13,0 16,6 16 9 36 19 NE 1034,4 42 42 0,0
13.09.2019 19:00:00 18,9 14,0 18,3 17 9 34 18 NE 1033,9 38 60 0,0
13.09.2019 18:00:00 20,1 14,7 19,7 17 9 35 19 NNE 1033,7 36 29 0,0
13.09.2019 17:00:00 21,1 14,3 20,2 13 7 32 17 NE 1033,6 37 25 0,0
13.09.2019 16:00:00 21,1 14,5 22,0 16 9 31 17 NNE 1033,7 41 18 0,0
13.09.2019 15:00:00 20,9 14,8 22,6 15 8 29 15 NE 1033,8 52 13 0,0
13.09.2019 14:00:00 21,0 15,8 23,0 15 8 28 15 NNE 1033,7 31 19 0,0
13.09.2019 13:00:00 19,9 15,9 20,2 14 7 25 14 NE 1033,8 30 0 0,0
13.09.2019 12:00:00 19,0 17,0 18,9 10 5 23 12 N 1033,7 31 0 0,0
13.09.2019 11:00:00 18,1 16,4 18,0 10 5 21 11 NNE 1033,5 23 0 0,2
13.09.2019 10:00:00 17,5 17,2 17,4 9 5 26 14 NNW 1033,1 1,9 0 0,2
13.09.2019 09:00:00 17,4 16,9 17,1 16 8 26 14 NNW 1032,4 4,1 0 0,0
13.09.2019 08:00:00 17,8 17,0 17,2 13 7 27 15 WNW 1032,0 4,4 0 0,2
13.09.2019 07:00:00 17,9 16,8 17,2 11 6 23 13 W 1031,5 10 0 0,0
13.09.2019 06:00:00 17,8 16,1 17,1 13 7 27 14 W 1031,2 16 0 0,0
13.09.2019 05:00:00 17,7 15,7 16,9 12 6 30 16 W 1031,0 20 0 0,0
13.09.2019 04:00:00 17,6 15,0 16,2 13 7 35 19 W 1031,0 31 0 0,0
13.09.2019 03:00:00 17,8 15,1 16,8 14 8 41 22 W 1031,3 31 0 0,0
13.09.2019 02:00:00 17,9 15,3 17,1 12 7 42 23 W 1031,1 32 0 0,0
13.09.2019 01:00:00 18,0 15,8 17,3 20 11 42 23 W 1031,1 27 0 0,0
13.09.2019 00:00:00 18,1 16,4 17,2 18 10 40 22 W 1031,1 27 0 0,0
12.09.2019 23:00:00 18,2 16,5 17,0 17 9 39 21 W 1031,2 20 0 0,0
12.09.2019 22:00:00 18,0 16,3 17,0 16 9 34 19 W 1031,0 20 0 0,0
12.09.2019 21:00:00 18,3 16,6 17,7 17 9 36 19 WSW 1030,8 29 0 0,0
12.09.2019 20:00:00 18,4 16,4 18,0 17 9 39 21 WSW 1030,6 32 5 0,0
12.09.2019 19:00:00 19,0 16,2 18,7 17 9 37 20 WSW 1030,4 20 20 0,0
12.09.2019 18:00:00 18,9 16,5 20,3 19 11 44 24 W 1030,4 36 8 0,0
12.09.2019 17:00:00 19,4 17,4 19,6 18 10 42 23 WSW 1030,3 20 5 0,0
12.09.2019 16:00:00 18,8 17,5 20,5 16 9 39 21 W 1030,5 13 0 0,0
12.09.2019 15:00:00 18,6 17,1 20,4 15 8 37 20 W 1030,5 9 0 0,0
12.09.2019 14:00:00 18,8 17,1 21,0 17 9 35 19 W 1030,5 35 0 0,0
12.09.2019 13:00:00 19,1 17,1 21,5 16 9 33 18 W 1030,3 30 16 0,0
12.09.2019 12:00:00 18,8 15,8 21,5 15 8 30 16 W 1030,0 44 17 0,0
12.09.2019 11:00:00 18,5 15,6 20,4 13 7 36 20 W 1029,7 33 9 0,0
12.09.2019 10:00:00 18,6 15,5 17,0 12 7 24 13 W 1029,1 39 21 0,0
12.09.2019 09:00:00 17,6 15,0 16,2 11 6 26 14 WNW 1028,2 34 0 0,0
12.09.2019 08:00:00 17,4 15,2 16,1 14 8 34 19 WNW 1027,6 34 0 0,0
12.09.2019 07:00:00 17,5 16,0 16,2 17 9 35 19 W 1026,9 20 0 0,0
12.09.2019 06:00:00 17,6 16,5 16,6 14 7 31 17 W 1026,3 19 0 0,0
12.09.2019 05:00:00 17,7 16,9 17,0 16 8 37 20 W 1026,2 14 0 0,0
12.09.2019 04:00:00 17,8 16,8 17,0 13 7 33 18 W 1026,1 16 0 0,0
12.09.2019 03:00:00 17,8 17,2 17,1 14 8 34 19 W 1025,8 7 0 0,0
12.09.2019 02:00:00 17,8 17,0 17,2 16 9 48 26 W 1025,7 11 0 0,0
12.09.2019 01:00:00 17,8 17,2 17,1 19 10 46 25 W 1025,3 8 0 0,0
12.09.2019 00:00:00 17,8 17,2 17,1 21 11 47 26 W 1025,0 7 0 0,0
11.09.2019 23:00:00 17,8 17,0 17,1 19 10 43 23 W 1024,8 9 0 0,2
11.09.2019 22:00:00 17,7 17,2 17,1 16 9 49 26 W 1024,5 3,3 0 0,4
11.09.2019 21:00:00 17,6 17,1 17,1 23 12 60 32 W 1024,1 2,0 0 0,8
11.09.2019 20:00:00 17,6 17,1 17,1 21 11 52 28 WSW 1023,5 8 0 0,0
11.09.2019 19:00:00 17,5 16,7 17,1 22 12 56 31 WSW 1023,4 7 0 0,0
11.09.2019 18:00:00 17,8 16,5 17,5 26 14 56 30 WSW 1023,2 7 0 0,0
11.09.2019 17:00:00 17,6 16,1 17,3 27 15 59 32 WSW 1023,2 16 0 0,0
11.09.2019 16:00:00 18,1 15,9 18,2 24 13 59 32 WSW 1023,0 17 0 0,0
11.09.2019 15:00:00 17,7 15,1 18,4 26 14 61 33 WSW 1023,2 19 0 0,0
11.09.2019 14:00:00 17,3 14,8 17,5 26 14 57 31 WSW 1023,0 18 0 0,0
11.09.2019 13:00:00 17,2 13,9 17,1 25 14 54 29 WSW 1023,0 20 0 0,0
11.09.2019 12:00:00 17,1 13,0 16,8 24 13 46 25 WSW 1023,1 28 0 0,0
11.09.2019 11:00:00 16,8 12,1 15,7 21 12 50 27 WSW 1022,8 32 0 0,0
11.09.2019 10:00:00 16,7 11,2 16,2 17 9 45 24 WSW 1022,3 37 0 0,0
11.09.2019 09:00:00 16,7 11,8 16,1 18 10 39 21 W 1022,0 33 0 0,0
11.09.2019 08:00:00 17,2 12,5 16,0 19 10 37 20 W 1021,5 34 0 0,0
11.09.2019 07:00:00 17,0 13,1 15,5 14 7 32 18 WSW 1021,2 33 0 0,0
11.09.2019 06:00:00 17,0 12,7 15,4 13 7 29 16 W 1021,2 35 0 0,0
11.09.2019 05:00:00 17,1 13,4 15,3 12 6 28 15 W 1021,1 45 0 0,0
11.09.2019 04:00:00 17,2 13,7 15,1 13 7 25 13 W 1021,8 42 0 0,0
11.09.2019 03:00:00 16,8 13,9 13,0 11 6 24 13 WSW 1021,5 36 0 0,0
11.09.2019 02:00:00 13,9 13,3 11,1 5 3 17 9 SSW 1021,7 20 0 0,0
11.09.2019 01:00:00 11,8 10,9 10,6 5 3 12 7 SE 1021,9 15 0 0,0
11.09.2019 00:00:00 12,1 11,0 9,4 6 3 12 7 SSE 1021,9 18 0 0,0
10.09.2019 23:00:00 14,6 12,8 8,4 5 3 13 7 W 1021,8 52 0 0,0
10.09.2019 22:00:00 15,6 12,0 10,0 5 3 14 8 W 1021,5 59 0 0,0
10.09.2019 21:00:00 16,4 11,5 10,4 5 3 15 8 WNW 1021,3 57 0 0,0
10.09.2019 20:00:00 17,0 11,3 13,6 8 5 23 12 W 1020,8 50 52 0,0
10.09.2019 19:00:00 18,1 11,4 16,6 12 7 26 14 NW 1020,6 40 60 0,0
10.09.2019 18:00:00 18,6 11,7 19,8 16 9 31 17 NW 1020,8 27 60 0,0
10.09.2019 17:00:00 18,8 11,1 20,0 14 8 27 15 WNW 1019,9 28 60 0,0
10.09.2019 16:00:00 19,2 10,7 20,7 14 7 31 17 NW 1019,8 29 60 0,0
10.09.2019 15:00:00 19,5 9,7 25,1 16 9 33 18 NW 1020,0 36 60 0,0
10.09.2019 14:00:00 19,7 10,7 26,8 17 9 29 15 NNW 1019,9 46 60 0,0
10.09.2019 13:00:00 19,5 11,0 27,3 15 8 27 15 NNW 1019,6 60 60 0,0
10.09.2019 12:00:00 19,6 8,6 27,2 7 4 19 10 N 1019,1 60 60 0,0
10.09.2019 11:00:00 18,8 8,4 25,4 4 2 14 7 NNW 1018,8 39 60 0,0
10.09.2019 10:00:00 16,4 10,3 17,3 3 2 9 5 SSE 1018,1 42 60 0,0
10.09.2019 09:00:00 13,2 9,1 10,6 6 3 11 6 SSE 1017,2 60 54 0,0
10.09.2019 08:00:00 11,5 8,5 5,5 5 3 8 5 SSE 1016,8 37 16 0,0
10.09.2019 07:00:00 12,3 8,8 8,1 6 3 9 5 SSE 1015,8 60 0 0,0
10.09.2019 06:00:00 12,6 9,2 11,0 5 3 10 5 SSE 1015,4 60 0 0,0
10.09.2019 05:00:00 12,8 9,4 11,5 6 4 11 6 SSE 1015,4 59 0 0,0
10.09.2019 04:00:00 12,9 9,3 11,4 6 3 11 6 SE 1015,3 59 0 0,0
10.09.2019 03:00:00 13,0 9,6 11,6 7 4 12 7 SSE 1014,7 60 0 0,0
10.09.2019 02:00:00 13,3 9,0 11,3 4 2 9 5 SE 1014,2 60 0 0,0
10.09.2019 01:00:00 13,0 9,3 11,2 6 4 11 6 SE 1014,0 60 0 0,0
10.09.2019 00:00:00 13,2 9,1 11,3 7 4 12 7 SE 1013,9 60 0 0,0
09.09.2019 23:00:00 13,2 9,3 11,4 8 5 16 8 SE 1013,7 60 0 0,0
09.09.2019 22:00:00 13,4 9,4 11,2 8 4 17 9 ESE 1013,5 60 0 0,0
09.09.2019 21:00:00 13,7 9,5 11,1 8 4 19 10 E 1013,1 60 0 0,0
09.09.2019 20:00:00 14,3 9,7 13,3 10 5 19 11 ESE 1012,8 60 0 0,0
09.09.2019 19:00:00 16,1 8,3 15,5 8 5 18 10 SSE 1012,7 60 0 0,0
09.09.2019 18:00:00 16,5 7,4 17,1 6 3 23 12 SSW 1012,7 60 0 0,0
09.09.2019 17:00:00 16,4 7,3 17,2 15 8 34 18 SW 1012,8 55 23 0,0
09.09.2019 16:00:00 16,6 7,8 17,6 17 9 38 20 SW 1013,2 54 42 0,0
09.09.2019 15:00:00 16,5 8,5 18,8 14 8 29 15 SW 1013,5 53 5 0,0
09.09.2019 14:00:00 16,3 9,2 18,6 16 9 32 18 S 1014,1 59 0 0,0
09.09.2019 13:00:00 15,5 8,5 16,8 16 8 35 19 S 1014,8 59 6 0,0
09.09.2019 12:00:00 14,3 8,7 16,0 14 8 29 16 S 1015,3 49 11 0,0
09.09.2019 11:00:00 13,1 9,2 13,2 10 6 20 11 SSE 1015,9 50 0 0,0
09.09.2019 10:00:00 11,5 9,1 9,8 9 5 16 9 SSE 1016,2 49 0 0,0

tt = temperature
td = dewpoint
tt 5cm = temperature 5cm
ff = wind speed
fx = gusts
dd = wind direction
ppp = reduced air pressure
vv = visibility
sd = sunshine duration
rr = precipitation

Next stations